| time (UTC) | temp F | wind direction | speed MPH | gust MPH | rain 1hr in | rain 24hr in | rain mn in | humidity % | barometer mb |
| 20260902043033 | 0 | 0.0 | 0.0 | 0.00 | 0.00 | 0.00 | 1014.2 | ||
| 20260902041532 | 0 | 0.0 | 0.0 | 0.00 | 0.00 | 0.00 | 1014.0 | ||
| 20260902040025 | 59 | 143 | 0.0 | 0.0 | 0.00 | 0.00 | 0.00 | 91 | 1014.0 |
| 20260902034525 | 59 | 176 | 0.0 | 0.0 | 0.00 | 0.00 | 0.00 | 91 | 1014.1 |
| 20260902033025 | 59 | 152 | 0.0 | 0.0 | 0.00 | 0.00 | 0.00 | 91 | 1014.0 |
| 20260902031535 | 60 | 148 | 0.0 | 0.0 | 0.00 | 0.00 | 0.00 | 91 | 1014.1 |
| 20260902030021 | 60 | 147 | 0.0 | 0.0 | 0.00 | 0.00 | 0.00 | 90 | 1014.3 |
| 20260902024520 | 60 | 156 | 0.0 | 0.0 | 0.00 | 0.00 | 0.00 | 90 | 1014.4 |
| 20260902023019 | 60 | 148 | 0.0 | 0.0 | 0.00 | 0.00 | 0.00 | 90 | 1014.4 |
| 20260902021525 | 60 | 123 | 0.0 | 0.0 | 0.00 | 0.00 | 0.00 | 90 | 1014.5 |
| 20260902020017 | 60 | 141 | 0.0 | 1.0 | 0.00 | 0.00 | 0.00 | 90 | 1014.6 |
| 20260902014540 | 60 | 76 | 0.0 | 1.0 | 0.00 | 0.00 | 0.00 | 90 | 1014.6 |
| 20260902013015 | 60 | 192 | 0.0 | 1.0 | 0.00 | 0.00 | 0.00 | 90 | 1014.5 |
| 20260902011515 | 60 | 188 | 0.0 | 0.0 | 0.00 | 0.00 | 0.00 | 90 | 1014.5 |
| 20260902010017 | 60 | 74 | 0.0 | 0.0 | 0.00 | 0.00 | 0.00 | 90 | 1014.6 |
| 20260902004513 | 60 | 143 | 0.0 | 0.0 | 0.00 | 0.00 | 0.00 | 90 | 1014.5 |
| 20260902003012 | 60 | 139 | 0.0 | 2.0 | 0.00 | 0.00 | 0.00 | 90 | 1014.5 |
| 20260902001512 | 60 | 71 | 0.0 | 0.0 | 0.00 | 0.00 | 0.00 | 90 | 1014.6 |
| 20260902000011 | 60 | 111 | 0.0 | 1.0 | 0.00 | 0.00 | 0.00 | 90 | 1014.6 |
| 20260901234523 | 60 | 143 | 0.0 | 1.0 | 0.00 | 0.00 | 0.00 | 91 | 1014.7 |
| 20260901233008 | 60 | 140 | 0.0 | 0.0 | 0.00 | 0.00 | 0.00 | 91 | 1014.8 |
| 20260901231507 | 60 | 208 | 0.0 | 0.0 | 0.00 | 0.00 | 0.00 | 91 | 1014.7 |
| 20260901230012 | 61 | 201 | 0.0 | 0.0 | 0.00 | 0.00 | 0.00 | 90 | 1014.8 |
| 20260901224504 | 61 | 187 | 0.0 | 1.0 | 0.00 | 0.00 | 0.00 | 89 | 1014.7 |
| 20260901223009 | 61 | 67 | 0.0 | 3.0 | 0.00 | 0.00 | 0.00 | 88 | 1014.8 |
| 20260901221507 | 61 | 155 | 0.0 | 1.0 | 0.00 | 0.00 | 0.00 | 87 | 1014.8 |
| 20260901220011 | 61 | 159 | 0.0 | 3.0 | 0.00 | 0.00 | 0.00 | 87 | 1014.8 |
| 20260901214501 | 61 | 129 | 0.0 | 0.0 | 0.00 | 0.00 | 0.00 | 87 | 1014.9 |
| 20260901213002 | 61 | 197 | 0.0 | 1.0 | 0.00 | 0.00 | 0.00 | 87 | 1015.0 |
| 20260901211502 | 61 | 170 | 0.0 | 1.0 | 0.00 | 0.00 | 0.00 | 87 | 1015.0 |
| 20260901204600 | 61 | 166 | 0.0 | 0.0 | 0.00 | 0.00 | 0.00 | 86 | 1015.1 |
| 20260901203104 | 61 | 178 | 0.0 | 0.0 | 0.00 | 0.00 | 0.00 | 85 | 1015.0 |
| 20260901201559 | 62 | 146 | 0.0 | 0.0 | 0.00 | 0.00 | 0.00 | 84 | 1015.1 |
| 20260901200059 | 62 | 184 | 0.0 | 0.0 | 0.00 | 0.00 | 0.00 | 84 | 1015.0 |
| 20260901194558 | 62 | 169 | 0.0 | 1.0 | 0.00 | 0.00 | 0.00 | 83 | 1015.0 |
| 20260901193108 | 62 | 152 | 0.0 | 0.0 | 0.00 | 0.00 | 0.00 | 83 | 1015.0 |
| 20260901191559 | 62 | 111 | 0.0 | 0.0 | 0.00 | 0.00 | 0.00 | 82 | 1015.0 |
| 20260901190055 | 62 | 181 | 0.0 | 1.0 | 0.00 | 0.00 | 0.00 | 81 | 1014.9 |
| 20260901184602 | 63 | 108 | 0.0 | 10.0 | 0.00 | 0.00 | 0.00 | 81 | 1014.7 |
| 20260901183057 | 63 | 194 | 0.0 | 3.0 | 0.00 | 0.00 | 0.00 | 81 | 1014.6 |
| 20260901181555 | 63 | 209 | 0.0 | 2.0 | 0.00 | 0.00 | 0.00 | 81 | 1014.6 |
| 20260901180053 | 63 | 216 | 0.0 | 3.0 | 0.00 | 0.00 | 0.00 | 80 | 1014.6 |
| 20260901174552 | 63 | 123 | 0.0 | 1.0 | 0.00 | 0.00 | 0.00 | 80 | 1014.6 |
| 20260901173052 | 63 | 124 | 0.0 | 6.0 | 0.00 | 0.00 | 0.00 | 80 | 1014.6 |
| 20260901171600 | 63 | 121 | 0.0 | 1.0 | 0.00 | 0.00 | 0.00 | 79 | 1014.6 |
| 20260901170051 | 63 | 114 | 0.0 | 2.0 | 0.00 | 0.00 | 0.00 | 79 | 1014.7 |
| 20260901164550 | 64 | 112 | 0.0 | 1.0 | 0.00 | 0.00 | 0.00 | 77 | 1014.6 |
| 20260901163050 | 64 | 70 | 0.0 | 4.0 | 0.00 | 0.00 | 0.00 | 77 | 1014.6 |
| 20260901161550 | 64 | 203 | 0.0 | 3.0 | 0.00 | 0.00 | 0.00 | 76 | 1014.5 |
| 20260901160058 | 64 | 136 | 0.0 | 4.0 | 0.00 | 0.00 | 0.00 | 76 | 1014.6 |
| 20260901154549 | 64 | 145 | 0.0 | 4.0 | 0.00 | 0.00 | 0.00 | 75 | 1014.5 |
| 20260901153047 | 65 | 198 | 0.0 | 3.0 | 0.00 | 0.00 | 0.00 | 75 | 1014.6 |
| 20260901151548 | 65 | 82 | 0.0 | 0.0 | 0.00 | 0.00 | 0.00 | 74 | 1014.6 |
| 20260901150048 | 65 | 333 | 0.0 | 2.0 | 0.00 | 0.00 | 0.00 | 72 | 1014.6 |
| 20260901144544 | 65 | 117 | 0.0 | 9.0 | 0.00 | 0.00 | 0.00 | 71 | 1014.6 |
| 20260901143043 | 66 | 207 | 0.0 | 10.0 | 0.00 | 0.00 | 0.00 | 70 | 1014.4 |
| 20260901141543 | 66 | 243 | 0.0 | 7.0 | 0.00 | 0.00 | 0.00 | 69 | 1014.5 |
| 20260901140042 | 67 | 110 | 0.0 | 12.0 | 0.00 | 0.00 | 0.00 | 69 | 1014.5 |
| 20260901134559 | 67 | 271 | 0.0 | 7.0 | 0.00 | 0.00 | 0.00 | 69 | 1014.4 |
| 20260901133041 | 67 | 97 | 0.0 | 6.0 | 0.00 | 0.00 | 0.00 | 70 | 1014.3 |
| 20260901131541 | 66 | 240 | 0.0 | 10.0 | 0.00 | 0.00 | 0.00 | 71 | 1014.5 |
| 20260901130040 | 66 | 115 | 0.0 | 4.0 | 0.00 | 0.00 | 0.00 | 71 | 1014.5 |
| 20260901124547 | 67 | 155 | 0.0 | 7.0 | 0.00 | 0.00 | 0.00 | 69 | 1014.6 |
| 20260901123038 | 67 | 117 | 0.0 | 9.0 | 0.00 | 0.00 | 0.00 | 71 | 1014.5 |
| 20260901121538 | 67 | 122 | 0.0 | 6.0 | 0.00 | 0.00 | 0.00 | 68 | 1014.5 |
| 20260901120054 | 68 | 222 | 0.0 | 7.0 | 0.00 | 0.00 | 0.00 | 67 | 1014.4 |
| 20260901114541 | 70 | 205 | 0.0 | 6.0 | 0.00 | 0.00 | 0.00 | 66 | 1014.4 |
| 20260901113103 | 70 | 280 | 0.0 | 7.0 | 0.00 | 0.00 | 0.00 | 67 | 1014.3 |
| 20260901111531 | 68 | 164 | 0.0 | 6.0 | 0.00 | 0.00 | 0.00 | 69 | 1014.4 |
| 20260901110031 | 68 | 76 | 0.0 | 12.0 | 0.00 | 0.00 | 0.00 | 68 | 1014.5 |
| 20260901104533 | 68 | 310 | 0.0 | 7.0 | 0.00 | 0.00 | 0.00 | 69 | 1014.5 |
| 20260901103028 | 68 | 139 | 0.0 | 11.0 | 0.00 | 0.00 | 0.00 | 69 | 1014.6 |
| 20260901101536 | 66 | 107 | 0.0 | 8.0 | 0.00 | 0.00 | 0.00 | 73 | 1014.5 |
| 20260901100020 | 64 | 286 | 1.0 | 8.0 | 0.00 | 0.00 | 0.00 | 74 | 1014.4 |
| 20260901094519 | 64 | 124 | 0.0 | 8.0 | 0.00 | 0.00 | 0.00 | 75 | 1014.7 |
| 20260901093022 | 64 | 52 | 0.0 | 7.0 | 0.00 | 0.00 | 0.00 | 76 | 1014.6 |
| 20260901091521 | 64 | 167 | 0.0 | 8.0 | 0.00 | 0.00 | 0.00 | 75 | 1014.7 |
| 20260901090016 | 63 | 143 | 0.0 | 3.0 | 0.00 | 0.00 | 0.00 | 79 | 1014.6 |
| 20260901084526 | 63 | 198 | 0.0 | 3.0 | 0.00 | 0.00 | 0.00 | 79 | 1014.5 |
| 20260901083012 | 62 | 81 | 0.0 | 7.0 | 0.00 | 0.00 | 0.00 | 81 | 1014.7 |
| 20260901081509 | 61 | 188 | 0.0 | 3.0 | 0.00 | 0.00 | 0.00 | 83 | 1014.6 |
| 20260901080007 | 61 | 340 | 0.0 | 1.0 | 0.00 | 0.00 | 0.00 | 85 | 1014.6 |
| 20260901074502 | 59 | 183 | 0.0 | 5.0 | 0.00 | 0.00 | 0.00 | 87 | 1014.7 |
| 20260901073103 | 58 | 150 | 0.0 | 1.0 | 0.00 | 0.00 | 0.00 | 89 | 1014.6 |
| 20260901071554 | 57 | 130 | 0.0 | 0.0 | 0.00 | 0.00 | 0.00 | 91 | 1014.8 |
| 20260901070100 | 56 | 126 | 0.0 | 0.0 | 0.00 | 0.00 | 0.00 | 90 | 1014.9 |
| 20260901064548 | 0 | 0.0 | 0.0 | 0.00 | 0.00 | 0.00 | 1015.0 | ||
| 20260901063047 | 0 | 0.0 | 0.0 | 0.00 | 0.00 | 0.00 | 1014.9 | ||
| 20260901061539 | 0 | 0.0 | 0.0 | 0.00 | 0.00 | 0.00 | 1014.9 | ||
| 20260901060035 | 0 | 0.0 | 0.0 | 0.00 | 0.00 | 0.00 | 1015.0 | ||
| 20260901054530 | 0 | 0.0 | 0.0 | 0.00 | 0.00 | 0.00 | 1014.9 | ||
| 20260901053031 | 0 | 0.0 | 0.0 | 0.00 | 0.00 | 0.00 | 1014.9 | ||
| 20260901051522 | 0 | 0.0 | 0.0 | 0.00 | 0.00 | 0.00 | 1014.9 | ||
| 20260901050017 | 0 | 0.0 | 0.0 | 0.00 | 0.00 | 0.00 | 1014.8 | ||
| 20260901044516 | 54 | 129 | 0.0 | 0.0 | 0.00 | 0.00 | 0.00 | 87 | 1014.8 |